{"data":{"norad_id":47590,"intl_designator":"2021-009AU","name":"STARLINK-1995","alt_names":[],"object_type":"PAYLOAD","status":"ACTIVE","operator":null,"country":"US","launch_date":"2021-02-04","launch_site_code":"AFETR","launch_vehicle":null,"mission":null,"orbit_class":"UNKNOWN","rcs_meters":null,"size_class":null,"mass_kg":null,"dimensions":null,"purposes":["comms"],"wikipedia_slug":null,"has_3d_model":false,"image_url":null,"decayed_at":null,"tle_current":{"epoch":"2026-08-14T17:14:22.703712Z","epoch_age_seconds":3203722,"freshness":"OLD","line1":"1 47590U 21009AU  26226.71831833  .12340006  12607-4  22137-3 0  9993","line2":"2 47590  53.0170 309.0336 0005651 294.3094  65.7365 16.47360939305777","mean_motion":16.47360939,"eccentricity":0.0005651,"inclination_deg":53.017,"raan_deg":309.0336,"arg_perigee_deg":294.3094,"mean_anomaly_deg":65.7365,"bstar":0.00022137,"rev_number":30577,"period_min":87.412537587186,"perigee_km":142.60738496916,"apogee_km":149.98129727089,"semimajor_km":6524.43134112,"source":"CELESTRAK","updated_at":"2026-08-15T09:00:51.130118Z"}}}